Theta_e
310 310 310 310 311 311 311 310 308 306 305 306 306 307 307 308 308 302 300 304 302 299 301 308 307 304 307 305 302 306 304 310 307 296 296 296 294 298 301 303 301 299 296 293 294 290 291 309 310 302 304 307 312 310
309 310 310 309 310 311 310 309 308 306 305 304 305 306 307 307 308 305 297 300 303 300 296 306 308 308 308 311 306 309 309 310 314 304 301 301 299 299 298 296 304 299 302 299 298 297 304 309 305 309 311 311 312 310
307 310 309 309 309 310 310 309 308 307 305 303 304 305 306 306 307 304 293 297 301 302 302 301 300 309 311 313 314 310 309 313 307 313 307 302 298 299 294 296 297 302 305 299 299 300 305 308 311 312 313 313 313 311
307 309 309 308 309 309 309 309 308 307 305 302 303 304 305 306 306 304 292 294 300 302 297 301 311 309 314 313 314 311 312 311 311 308 301 299 298 299 296 299 299 301 302 300 300 303 307 309 312 314 315 314 312 311
306 308 309 309 309 309 309 308 308 306 305 302 302 304 305 306 306 300 294 294 297 301 299 301 306 308 310 310 313 312 311 306 302 297 299 298 299 299 300 299 298 302 300 300 300 305 304 307 313 317 315 312 311 310
306 307 308 308 309 309 308 308 307 306 304 302 302 303 304 305 305 298 295 300 299 300 297 295 303 303 308 308 308 308 308 306 301 299 297 299 303 302 298 294 300 305 304 305 304 306 308 311 316 316 315 312 312 311
306 306 308 309 309 308 308 308 307 306 304 302 302 303 304 305 296 295 294 300 302 299 297 293 292 299 304 303 303 303 307 304 302 298 298 297 299 301 298 296 303 307 304 304 308 308 305 309 312 315 314 314 312 311
305 306 307 308 308 308 308 307 307 305 304 302 302 302 305 304 299 290 297 304 299 300 299 291 292 298 303 298 297 302 303 302 301 298 298 297 297 297 294 299 302 305 305 304 306 308 306 307 306 308 312 311 310 308
305 306 307 307 307 308 307 307 306 305 303 301 302 304 296 291 289 293 309 305 304 300 293 292 290 293 301 297 297 301 301 297 300 296 295 297 293 293 298 300 302 304 302 302 302 302 304 305 306 311 310 310 309 307
305 306 307 307 307 307 306 306 305 304 302 302 297 293 288 293 303 307 300 294 294 293 298 296 296 294 299 295 295 297 297 294 291 295 298 293 293 297 299 301 302 303 304 302 298 298 300 301 308 309 309 311 310 309
305 306 307 308 307 307 306 305 305 303 301 293 290 291 296 305 297 295 290 288 288 287 290 296 297 295 300 296 294 296 294 293 289 292 295 290 290 296 300 301 303 303 302 300 299 300 301 302 303 309 310 311 311 309
305 306 307 307 307 306 306 305 304 295 292 294 295 297 295 293 290 289 287 290 288 286 291 290 292 296 296 300 296 296 294 294 290 295 293 289 294 297 300 302 302 302 303 301 301 301 302 303 305 307 311 311 311 309
306 307 307 306 306 306 305 304 303 302 300 299 295 293 289 288 279 283 283 285 286 291 291 290 289 292 293 299 296 296 292 291 295 291 291 293 296 303 303 303 303 303 303 302 304 305 305 305 305 304 305 311 311 309
306 306 306 306 305 305 305 305 304 300 294 293 293 280 283 281 285 285 286 288 291 291 292 291 289 293 294 295 295 293 295 294 289 286 288 295 302 304 305 305 305 305 305 304 304 306 305 305 305 305 309 310 309 307
306 306 305 305 305 304 305 305 304 297 294 294 293 282 284 289 290 291 291 289 291 292 293 292 291 294 293 294 293 291 289 289 290 288 293 301 302 303 304 304 305 306 306 306 305 305 307 310 309 309 310 308 308 308
305 303 301 304 304 304 304 303 299 298 297 295 292 288 288 287 287 288 290 290 292 291 293 293 289 290 291 291 290 289 288 287 289 298 301 301 301 302 303 306 307 307 307 306 306 308 309 311 310 308 307 306 307 307
302 297 303 304 304 304 302 296 295 293 294 294 288 290 289 289 288 289 290 290 292 292 289 290 289 289 292 289 288 293 290 295 299 300 301 301 301 301 302 305 306 306 305 304 304 305 305 310 310 308 305 306 305 306
295 300 303 303 301 300 298 297 295 294 291 291 287 288 289 292 292 292 294 294 294 292 291 291 292 287 287 288 289 293 295 299 301 300 299 300 300 300 303 301 302 303 303 303 302 302 303 303 305 307 306 306 306 306
297 300 303 302 300 296 293 295 295 288 290 289 289 289 291 291 292 294 294 294 296 296 295 292 289 287 289 292 293 293 294 297 297 296 295 296 297 299 299 300 300 299 299 298 297 297 298 300 301 303 307 306 306 305
302 302 302 302 301 293 290 291 296 289 286 289 291 289 291 291 292 292 293 294 294 295 293 290 288 290 293 294 295 295 295 296 295 294 294 294 296 297 296 297 296 296 296 296 296 294 296 296 298 302 303 303 304 305
299 299 301 300 297 295 292 292 289 288 288 289 292 290 290 292 289 290 291 292 291 289 288 290 290 292 293 294 294 294 294 295 294 294 293 293 295 294 294 295 295 294 294 294 294 295 295 295 296 297 300 301 303 304
297 301 297 298 294 294 293 293 291 290 288 289 292 290 289 287 287 289 291 290 290 291 291 292 293 294 294 294 295 295 295 294 293 294 293 293 293 293 293 293 294 293 293 293 294 294 295 296 297 298 300 301 300 302
299 298 295 294 289 287 287 293 289 289 286 288 290 288 287 287 289 292 288 289 291 294 295 294 294 294 294 294 294 294 295 295 293 293 294 293 293 293 293 293 294 293 293 293 295 295 295 293 296 297 297 298 299 300
300 293 288 287 286 285 291 287 288 289 288 286 286 286 286 287 290 288 286 288 291 293 293 293 294 292 292 292 291 290 291 292 292 292 292 292 291 291 292 293 293 294 294 294 294 294 295 295 294 295 296 296 297 296
287 287 286 285 290 287 286 286 287 286 285 286 286 285 286 288 285 285 285 288 288 289 290 292 291 292 290 288 288 289 290 290 289 289 290 290 289 290 290 291 292 293 294 292 292 293 294 294 294 294 295 295 295 295
283 286 283 288 287 286 288 285 285 286 287 286 286 288 288 286 285 284 288 289 288 288 288 289 290 288 287 288 287 287 288 289 289 288 288 289 289 292 292 291 292 292 294 294 293 294 294 295 295 294 294 294 291 293
280 287 290 292 292 292 290 292 291 288 287 286 286 287 286 284 285 286 291 290 287 288 289 289 288 287 287 286 287 288 289 289 289 290 291 291 292 295 295 293 292 294 295 295 295 295 295 295 295 295 295 295 295 295
290 290 287 291 290 292 289 289 289 288 289 289 287 286 287 286 284 290 293 290 291 290 289 289 289 288 288 288 289 288 288 289 292 292 293 294 295 296 296 296 296 291 294 296 296 296 295 295 295 295 295 295 296 297
289 293 292 289 290 288 287 287 286 288 290 284 284 284 284 286 290 291 290 293 293 290 287 286 287 289 289 289 289 291 293 292 287 290 290 289 288 291 296 297 297 297 297 297 291 290 295 295 295 296 296 296 297 298
290 293 289 289 287 284 287 289 287 289 289 289 288 287 286 291 294 290 290 288 287 287 288 288 289 289 289 290 292 294 295 293 294 292 289 289 288 294 295 296 296 297 297 297 296 297 292 293 294 294 293 293 293 294
291 290 289 288 288 290 292 292 292 291 290 288 288 285 283 287 290 292 290 290 290 293 292 290 289 288 288 289 288 287 286 289 290 292 292 291 294 295 295 296 297 297 297 296 295 295 295 294 295 296 296 296 296 294
288 288 289 288 288 292 294 292 291 289 287 288 285 291 291 287 285 286 291 291 289 289 287 288 287 286 288 289 289 289 287 290 291 291 293 295 296 296 296 296 295 294 294 294 294 295 295 296 296 295 295 297 296 296
289 290 291 290 289 289 292 292 291 288 288 288 287 288 288 284 283 287 292 293 291 290 290 289 289 289 290 291 290 291 288 291 290 286 286 284 285 288 289 291 292 293 292 292 293 295 297 298 297 295 295 295 296 296
Wind_Speed
10 10 11 11 9 8 7 7 5 2 4 9 12 14 16 17 19 7 3 3 2 0 5 3 4 3 3 3 2 3 4 6 5 6 3 2 2 1 2 3 4 5 6 3 3 2 3 7 4 5 8 3 6 6
8 11 11 11 11 9 9 9 8 5 2 6 10 14 16 17 18 12 2 2 2 3 5 2 6 5 3 3 5 3 5 1 3 5 1 2 0 2 2 1 2 0 7 7 9 8 5 5 4 4 8 8 7 7
9 11 11 10 11 10 10 10 9 7 3 4 8 11 13 14 16 11 2 4 3 3 4 5 4 6 2 2 3 4 2 4 2 2 4 2 3 3 2 2 0 2 3 3 3 3 4 5 2 4 6 7 6 6
10 10 11 10 10 11 11 10 9 7 5 1 5 8 11 13 14 11 3 3 2 1 2 6 4 4 6 3 5 2 5 4 5 3 3 3 2 2 4 3 3 4 2 4 2 4 2 1 4 8 4 6 8 6
11 10 11 11 11 12 12 11 11 8 5 1 4 8 10 13 14 5 2 2 0 2 2 5 7 4 5 2 7 6 5 4 3 3 3 2 2 3 2 3 3 3 6 5 7 8 6 6 7 7 9 8 10 10
12 11 12 12 11 12 13 12 11 9 6 2 3 7 9 11 13 2 3 1 3 2 3 3 4 4 1 3 6 4 2 3 3 4 3 3 3 4 3 3 5 4 3 7 4 5 4 4 9 6 9 10 9 11
13 12 12 13 12 13 14 14 13 9 6 2 3 6 8 9 3 2 4 3 2 2 2 4 6 4 2 3 3 3 3 2 3 2 1 1 1 4 3 5 6 7 7 4 4 6 2 3 7 9 7 8 8 6
13 13 14 14 13 14 15 14 12 9 6 0 4 7 10 10 5 4 3 5 6 4 3 0 5 4 1 1 2 2 2 3 4 2 1 1 2 2 4 7 6 6 5 3 6 7 6 3 5 5 5 10 11 12
13 12 15 17 16 17 16 14 12 8 5 0 4 7 4 3 1 4 3 7 2 4 2 1 3 4 2 1 1 3 3 1 2 0 2 4 1 5 8 9 7 7 7 7 4 5 5 6 7 7 8 9 14 10
13 12 15 18 18 18 17 15 12 9 5 1 3 2 2 4 7 3 5 4 5 4 2 3 1 3 3 2 1 2 2 2 0 5 2 2 5 6 8 9 6 6 7 5 4 2 3 3 6 7 11 13 15 16
14 12 17 19 20 19 17 16 14 12 5 2 1 3 3 7 3 3 1 2 0 1 3 4 5 2 1 4 4 3 3 2 1 6 5 1 4 6 6 9 8 7 5 7 4 7 8 6 7 8 5 8 7 10
14 12 18 21 20 19 18 16 15 4 3 4 2 2 2 3 3 3 3 0 3 7 4 5 5 5 2 2 3 2 3 1 5 2 3 2 6 6 7 6 6 8 9 7 4 6 6 7 8 9 10 9 9 8
15 18 21 21 20 19 18 16 13 3 2 1 1 2 3 1 4 7 8 4 3 4 4 2 2 3 2 2 2 3 3 5 2 3 4 5 5 7 8 2 5 2 5 6 5 5 7 4 4 7 6 7 10 11
16 19 21 20 19 17 16 14 9 3 3 1 4 2 6 4 5 6 6 6 5 2 4 4 3 3 2 3 2 4 4 3 1 1 4 3 4 8 7 5 7 7 8 7 4 3 4 2 3 4 6 7 9 11
19 18 19 18 18 16 14 12 9 2 1 2 1 5 6 4 3 3 4 2 2 2 3 3 3 3 1 3 1 3 2 4 5 5 3 3 4 5 6 6 7 7 7 7 5 5 5 1 2 3 5 6 6 5
19 16 5 19 18 16 14 10 2 1 2 3 4 3 3 1 4 2 3 4 3 3 2 2 4 3 4 4 4 6 5 5 3 2 2 0 2 5 6 7 7 7 7 7 7 6 6 7 4 3 0 4 6 9
11 3 13 18 17 16 12 3 2 3 2 4 4 3 3 4 5 4 3 4 3 4 4 3 5 8 2 3 3 1 5 3 3 1 1 2 4 4 5 7 7 7 8 8 7 8 7 6 6 5 3 4 1 0
4 11 14 19 11 8 2 1 2 2 5 5 2 3 2 3 3 3 3 2 3 4 5 4 4 3 2 5 2 2 1 2 3 3 3 4 5 6 6 7 7 7 7 7 7 7 6 8 7 4 1 2 2 1
7 11 20 17 6 4 4 2 1 2 5 3 3 2 2 3 3 3 3 2 2 3 5 4 5 3 3 2 3 2 2 3 3 2 3 4 6 6 6 6 7 7 7 6 6 5 4 5 4 5 4 1 2 2
15 16 16 7 1 3 3 3 3 4 4 4 0 3 2 2 2 2 3 4 3 3 5 4 2 3 4 4 3 4 3 3 4 4 3 4 4 6 7 5 4 4 5 6 5 5 5 5 4 5 4 3 2 5
9 3 5 2 4 3 1 3 4 4 4 1 1 2 3 3 3 3 3 3 5 3 2 1 2 1 2 3 2 3 4 3 3 3 3 1 3 4 4 4 4 4 4 4 5 6 6 4 5 4 3 4 4 5
2 5 3 3 1 3 3 4 3 3 1 2 3 3 2 1 2 2 1 4 2 2 3 3 3 4 4 4 2 3 5 7 5 4 5 3 4 4 4 4 4 4 4 4 4 4 5 5 7 7 5 5 4 3
4 3 3 4 1 1 4 1 3 1 1 1 4 3 2 1 2 1 3 0 1 2 2 3 3 2 5 5 7 7 6 7 5 4 4 4 3 3 3 4 4 4 4 4 3 3 4 6 6 6 7 7 5 5
2 3 2 1 3 3 1 2 2 1 1 2 4 4 3 3 1 3 2 1 2 2 1 1 5 7 6 6 5 4 4 3 4 4 4 4 3 3 3 3 3 3 2 4 4 4 4 4 6 5 5 6 7 6
5 5 4 6 5 4 5 2 3 3 3 3 3 1 2 2 3 3 4 1 3 3 3 3 5 5 6 4 3 3 4 3 4 3 2 3 2 3 3 3 4 4 3 3 3 5 5 4 5 6 8 8 9 10
5 6 7 7 3 5 6 5 6 5 3 4 4 2 2 3 3 3 4 4 3 1 1 2 6 6 4 2 4 1 1 2 2 2 0 1 0 2 6 7 8 6 3 3 4 7 9 10 10 13 12 12 11 10
2 2 2 3 3 3 2 3 2 4 4 2 3 2 2 3 5 4 2 2 3 2 2 3 4 4 5 3 2 2 2 2 2 3 3 3 4 4 5 6 9 7 7 8 7 9 10 10 11 12 12 11 10 11
3 2 3 3 2 2 4 2 2 3 3 2 3 3 5 4 4 3 3 3 5 4 4 3 3 4 3 3 3 2 1 1 2 2 3 4 4 4 5 5 6 11 9 9 10 11 11 12 11 12 13 12 12 11
2 1 4 2 1 1 3 4 4 3 3 3 4 3 3 2 2 2 2 4 3 4 4 2 1 2 1 1 1 3 3 3 0 4 6 6 4 5 3 5 6 7 7 9 10 10 14 14 14 14 15 12 11 10
2 2 1 2 2 1 2 3 3 2 2 3 4 2 2 1 2 1 4 4 4 3 4 4 3 3 2 2 2 3 2 3 4 4 5 6 5 6 7 8 9 9 8 9 10 12 12 11 12 11 11 10 9 10
1 1 1 2 2 1 2 3 3 3 3 3 2 3 3 2 1 1 3 4 4 3 3 2 1 2 2 3 3 2 4 3 4 7 6 4 6 8 7 8 8 8 9 10 10 10 11 12 11 12 15 15 13 10
1 1 1 2 2 2 2 2 2 2 1 2 0 2 2 2 1 2 3 4 3 3 4 3 3 4 4 3 3 3 6 4 5 5 7 5 5 6 7 7 8 7 9 10 10 10 12 15 8 8 12 11 9 11
2 2 1 3 2 3 3 3 3 2 1 3 3 3 3 5 5 5 1 4 5 5 5 5 5 4 4 4 4 3 4 4 6 6 6 5 5 4 4 5 6 8 9 9 10 10 13 14 9 7 8 10 9 7
Wind_Direction
193 198 194 198 209 211 197 178 163 124 23 6 9 11 8 6 4 9 285 334 89 88 288 347 348 16 16 42 108 277 45 358 40 65 109 215 142 260 73 172 177 154 128 158 87 107 264 172 110 159 204 206 164 163
199 192 195 193 195 198 188 177 172 162 64 6 6 5 6 7 2 1 328 351 318 121 246 299 263 251 222 195 146 15 143 147 172 95 100 121 116 62 160 227 34 77 173 182 171 210 249 221 176 189 168 160 185 160
209 196 192 191 187 189 183 181 180 170 142 5 1 2 6 1 0 9 294 312 4 35 322 16 344 344 101 180 153 110 301 175 75 166 146 149 89 125 120 256 303 318 134 115 105 265 228 202 109 165 184 159 156 134
207 204 192 192 190 187 186 184 177 175 157 83 358 355 353 354 351 4 357 329 47 97 91 282 336 331 325 54 63 56 128 60 96 68 95 117 119 154 194 203 155 204 73 136 302 288 62 174 214 168 163 114 107 129
201 206 199 193 190 184 183 179 172 178 169 168 353 348 351 349 339 333 212 254 310 118 222 282 313 284 301 51 70 58 69 74 68 51 70 225 176 97 354 61 283 176 175 150 215 217 161 218 193 159 139 159 155 140
196 201 197 195 187 178 177 173 175 176 180 196 340 346 344 343 345 2 22 350 16 48 65 346 294 296 266 119 93 85 81 83 83 128 214 269 280 105 118 206 256 259 234 185 221 185 214 205 167 167 166 167 170 165
195 199 195 194 187 179 177 176 174 173 184 190 341 334 328 334 13 136 193 231 46 28 70 328 328 301 240 69 38 42 35 61 100 116 218 215 281 88 128 199 233 225 248 185 158 120 50 155 190 193 162 151 115 102
194 198 196 191 191 183 175 173 169 171 172 172 330 322 315 313 288 316 267 265 143 89 64 135 273 344 323 51 19 351 69 28 1 185 51 188 5 60 243 239 229 226 233 283 204 212 197 177 125 139 114 136 143 159
195 197 193 188 193 175 167 164 160 157 146 292 316 320 343 22 21 246 110 128 66 121 163 134 194 226 358 58 87 31 65 43 301 192 255 101 252 221 227 221 214 213 188 213 217 228 188 175 178 153 138 159 157 171
195 197 187 185 173 164 163 160 154 145 138 105 31 30 312 231 266 80 10 27 17 343 52 223 213 262 94 35 17 88 20 180 190 251 84 118 253 256 246 219 226 232 221 171 111 82 121 137 171 164 187 180 177 180
194 192 180 172 168 164 160 153 142 128 84 65 147 215 259 316 60 36 73 118 237 275 204 234 193 209 267 130 187 185 182 175 142 261 136 282 287 255 269 224 221 231 213 243 199 183 188 168 174 181 192 199 197 182
186 193 178 167 168 163 157 149 148 101 180 193 193 312 322 48 47 128 203 311 180 220 220 177 212 195 254 115 114 213 165 88 231 153 89 264 256 294 309 271 256 214 204 215 170 194 171 174 178 184 193 180 190 200
188 176 168 163 163 159 152 153 154 85 39 46 200 171 119 253 57 183 185 226 202 209 206 161 191 167 15 50 82 132 141 221 85 85 218 226 289 320 322 344 26 358 175 157 155 157 166 197 193 183 209 201 182 178
147 155 156 153 150 149 144 150 161 81 58 168 164 167 174 219 230 188 186 192 232 173 148 134 126 155 199 126 153 140 224 106 89 137 235 281 298 312 333 11 63 42 60 80 83 63 101 159 276 221 207 178 169 178
153 147 144 146 142 140 135 136 144 87 73 258 183 218 209 231 246 234 223 292 235 153 101 86 53 103 148 128 221 100 135 225 187 208 207 248 306 322 355 11 44 45 40 42 21 31 8 87 184 240 210 183 184 169
128 114 116 137 135 138 134 128 79 86 251 248 236 274 251 129 279 249 234 252 200 159 98 68 119 139 209 152 135 203 152 202 207 179 204 339 29 38 38 45 43 46 49 41 29 16 10 1 310 282 92 193 182 167
90 95 142 133 133 133 139 97 106 193 263 245 252 223 215 234 225 231 206 232 159 110 183 135 140 196 131 124 157 95 170 180 147 115 87 98 74 44 33 46 37 36 39 30 24 25 16 2 37 32 323 340 329 109
77 140 141 136 128 114 13 39 148 226 247 250 234 255 237 234 264 260 256 222 134 148 129 185 125 101 143 140 196 224 143 87 72 93 71 53 53 49 56 56 38 32 31 30 22 11 14 20 25 358 18 84 72 92
136 144 146 139 144 130 168 142 72 267 253 258 254 282 247 259 265 286 280 282 145 127 107 53 78 121 171 150 146 172 121 126 125 86 63 46 47 43 37 39 36 34 36 23 24 25 9 359 341 335 334 326 203 222
125 139 147 143 241 139 183 123 158 237 258 236 224 327 313 262 299 339 342 4 54 58 50 56 164 191 149 173 178 140 123 131 109 77 30 8 21 42 38 42 27 358 9 0 10 26 8 5 8 353 340 316 279 266
70 81 94 97 12 37 74 187 226 222 252 235 84 15 318 10 20 6 7 344 52 56 79 135 136 90 114 114 117 105 107 88 93 123 170 14 350 21 20 13 10 31 28 10 4 347 10 338 306 312 284 272 267 282
97 98 98 64 69 228 229 227 238 260 157 248 62 5 2 28 333 323 309 51 71 197 145 146 158 134 119 145 140 67 100 100 96 84 53 58 44 27 19 358 31 34 35 25 12 358 339 345 346 339 335 313 299 272
129 108 159 185 143 58 257 172 218 237 70 210 106 201 264 248 238 4 61 277 213 236 153 136 157 133 109 71 75 53 68 105 88 77 69 73 68 43 35 26 27 23 354 338 351 337 332 327 338 346 340 340 323 290
57 46 30 274 170 261 212 282 311 79 284 165 141 152 202 210 90 73 177 279 339 322 50 145 122 97 64 49 60 50 32 63 90 65 39 58 39 3 353 333 330 317 284 294 321 328 330 325 324 326 322 322 320 314
141 203 192 202 187 213 194 211 200 189 180 166 127 187 215 103 110 175 182 260 4 0 10 65 77 93 120 110 95 68 22 61 71 66 52 66 10 320 321 292 287 282 288 320 315 314 308 302 303 302 304 302 297 300
206 205 192 187 163 202 174 175 183 176 168 151 207 193 127 124 153 194 184 177 169 196 43 88 121 107 79 110 148 156 32 27 64 69 253 56 290 303 312 309 312 304 227 258 287 294 298 302 298 296 293 293 287 288
263 259 254 216 189 172 108 328 74 114 159 202 145 113 127 167 210 201 131 136 136 186 151 120 109 115 132 148 172 184 173 149 158 209 257 280 271 277 275 287 299 301 304 300 295 291 289 286 283 282 280 277 275 279
232 255 259 352 14 71 116 134 135 165 191 197 104 136 170 218 209 167 151 159 132 151 130 125 134 134 137 162 159 127 33 310 294 305 267 251 236 242 258 261 260 269 277 277 280 283 285 285 278 276 275 275 276 272
241 214 148 177 220 97 162 180 189 189 173 122 132 166 212 255 188 131 137 140 137 110 105 103 301 185 134 92 178 197 206 202 57 297 306 309 311 304 268 279 285 282 279 279 270 259 270 272 275 274 273 269 269 270
313 5 14 128 123 162 255 156 140 147 109 112 120 98 34 18 85 108 113 116 121 156 190 190 193 162 210 199 251 248 208 211 208 212 257 273 262 296 300 296 297 296 293 288 288 291 288 278 276 266 258 252 250 250
144 289 187 73 92 66 127 101 61 54 45 61 59 116 172 175 1 108 158 180 189 197 158 177 247 220 217 215 207 259 296 276 247 255 247 255 271 278 283 290 295 300 299 293 288 286 284 284 281 286 287 268 254 247
21 275 122 118 123 144 118 129 145 112 143 104 322 119 126 86 239 265 217 144 147 172 217 194 195 245 217 223 226 232 219 267 276 265 272 267 279 292 304 301 304 300 297 299 294 288 286 289 284 302 319 302 266 265
196 232 230 115 117 168 206 145 165 130 149 182 188 193 180 164 208 245 250 177 167 184 201 209 212 214 215 222 228 247 261 265 283 281 284 294 283 290 301 310 313 313 304 303 305 300 303 311 294 286 305 311 300 280